Weather History for Westerly, RI

Change the Weather History Date:

Tuesday, October 2, 2012

  Actual Average (KGON) Record (KGON)
Temperature  
Mean Temperature 60 °F -  
Max Temperature 69 °F 67 °F 80 °F (1971)
Min Temperature 51 °F 48 °F 32 °F (1992)
Degree Days  
Heating Degree Days 5    
Growing Degree Days 10 (Base 50)    
Moisture  
Dew Point 57 °F    
Average Humidity 89    
Maximum Humidity 100    
Minimum Humidity 61    
Precipitation  
Precipitation 0.09 in - - ()
Sea Level Pressure  
Sea Level Pressure 30.03 in    
Wind  
Wind Speed 1 mph (ENE)    
Max Wind Speed 7 mph    
Max Gust Speed -    
Visibility 8 miles    
Events Rain    
Averages and records for this station are not official NWS values.
T = Trace of Precipitation, MM = Missing Value Source: NWS Daily Summary

Daily Weather History Graph

Daily Weather History Graph

Search for Another Location

Airport:

Trip Planner

Search our weather history database for the weather conditions in past years. The results will help you decide how hot, cold, wet, or windy it might be!

Date:

Astronomy

Oct. 02, 2012 Rise Set
Actual Time 6:45 AM EDT 6:26 PM EDT
Civil Twilight 6:17 AM EDT 6:54 PM EDT
Nautical Twilight 5:45 AM EDT 7:26 PM EDT
Astronomical Twilight 5:13 AM EDT 7:58 PM EDT
Moon 7:35 PM EDT (10/2) 9:11 AM EDT (10/2)
Length of Visible Light 12h 36m
Length of Day
11h 41m
Waning Gibbous, 94% of the Moon is Illuminated
Oct 2
Waning Gibbous
Oct 8
Last Quarter
Oct 15
New
Oct 21
First Quarter
Oct 29
Full

Hourly Weather History & Observations

Time (EDT) Temp. Dew Point Humidity Pressure Visibility Wind Dir Wind Speed Gust Speed Precip Events Conditions
12:53 AM 52.0 °F 50.0 °F 93% 29.97 in 10.0 mi Calm Calm - N/A   Clear
1:53 AM 51.1 °F 50.0 °F 96% 29.98 in 10.0 mi Calm Calm - N/A   Clear
2:53 AM 53.1 °F 52.0 °F 96% 29.98 in 10.0 mi Calm Calm - N/A   Partly Cloudy
4:53 AM 54.0 °F 52.0 °F 93% 30.00 in 10.0 mi North 3.5 mph - N/A   Overcast
5:53 AM 53.1 °F 52.0 °F 96% 30.01 in 10.0 mi Calm Calm - N/A   Mostly Cloudy
6:53 AM 53.1 °F 52.0 °F 96% 30.03 in 10.0 mi Calm Calm - N/A   Partly Cloudy
7:53 AM 55.0 °F 53.1 °F 93% 30.05 in 10.0 mi Calm Calm - N/A   Scattered Clouds
8:53 AM 59.0 °F 55.0 °F 87% 30.05 in 10.0 mi Calm Calm - N/A   Clear
9:53 AM 64.9 °F 55.9 °F 73% 30.06 in 10.0 mi Calm Calm - N/A   Overcast
10:53 AM 66.9 °F 55.9 °F 68% 30.06 in 10.0 mi SSW 3.5 mph - N/A   Partly Cloudy
11:53 AM 69.1 °F 55.0 °F 61% 30.04 in 10.0 mi SE 4.6 mph - N/A   Overcast
12:53 PM 68.0 °F 57.0 °F 68% 30.04 in 10.0 mi South 6.9 mph - N/A   Partly Cloudy
1:53 PM 68.0 °F 57.9 °F 70% 30.04 in 10.0 mi South 3.5 mph - N/A   Overcast
2:53 PM 66.9 °F 60.1 °F 79% 30.06 in 9.0 mi SSW 3.5 mph - 0.00 in Rain Light Rain
3:53 PM 64.0 °F 57.9 °F 80% 30.05 in 5.0 mi Calm Calm - 0.01 in Rain Light Rain
4:53 PM 63.0 °F 61.0 °F 93% 30.04 in 7.0 mi NNE 3.5 mph - 0.02 in Rain Light Rain
5:53 PM 61.0 °F 60.1 °F 97% 30.04 in 4.0 mi NE 3.5 mph - 0.01 in Rain Light Rain
6:53 PM 61.0 °F 60.1 °F 97% 30.03 in 5.0 mi NNE 3.5 mph - 0.02 in Rain Rain
7:53 PM 61.0 °F 60.1 °F 97% 30.03 in 8.0 mi Calm Calm - 0.03 in   Overcast
8:15 PM 60.8 °F 60.8 °F 100% 30.04 in 7.0 mi Calm Calm - N/A   Overcast
9:13 PM 60.8 °F 60.8 °F 100% 30.04 in 8.0 mi Calm Calm - 0.00 in   Overcast
9:53 PM 62.1 °F 61.0 °F 96% 30.03 in 6.0 mi ENE 3.5 mph - 0.00 in   Overcast
10:53 PM 61.0 °F 61.0 °F 100% 30.03 in 6.0 mi NNE 3.5 mph - N/A   Overcast
11:11 PM 60.8 °F 60.8 °F 100% 30.03 in 4.0 mi NE 3.5 mph - 0.00 in Rain Light Rain
11:53 PM 62.1 °F 61.0 °F 96% 30.03 in 4.0 mi Calm Calm - 0.00 in   Overcast